Mountain Home, ID

5:06 PM MDT on June 27, 2017 (GMT -0600)
Mountain Home Air Force Base

Weather History for KMUO - June, 2014

Change the Weather History Date:

Tuesday, June 10, 2014

  Actual Average Record
Temperature  
Mean Temperature 71 °F 66 °F  
Max Temperature 84 °F 80 °F 100 °F (1949)
Min Temperature 58 °F 50 °F 30 °F (1929)
Degree Days  
Heating Degree Days 0 3  
Month to date heating degree days 0 38  
Cooling Degree Days 6 3  
Month to date cooling degree days 34 28  
Growing Degree Days 21 (Base 50)    
Moisture  
Dew Point 28 °F    
Average Humidity 22    
Maximum Humidity 40    
Minimum Humidity 8    
Precipitation  
Precipitation 0.00 in 0.02 in 0.55 in (1913)
Month to date precipitation T 0.27  
Sea Level Pressure  
Sea Level Pressure 29.80 in    
Wind  
Wind Speed 16 mph (NW)    
Max Wind Speed 25 mph    
Max Gust Speed 40 mph    
Visibility 10 miles    
Events      
T = Trace of Precipitation, MM = Missing Value Source: NWS Daily Summary

Daily Weather History Graph

Daily Weather History Graph

Search for Another Location

Airport or City:

Trip Planner

Search our weather history database for the weather conditions in past years. The results will help you decide how hot, cold, wet, or windy it might be!

Date:

Astronomy

Jun. 10, 2014 Rise Set
Actual Time 6:03 AM MDT 9:22 PM MDT
Civil Twilight 5:28 AM MDT 9:57 PM MDT
Nautical Twilight 4:43 AM MDT 10:43 PM MDT
Astronomical Twilight 3:47 AM MDT 11:39 PM MDT
Moon 6:48 PM MDT (6/10) 4:16 AM MDT (6/10)
Length of Visible Light 16h 28m
Length of Day
15h 18m
Waxing Gibbous, 92% of the Moon is Illuminated
Jun 10
Waxing Gibbous
Jun 12
Full
Jun 19
Last Quarter
Jun 27
New
Jul 5
First Quarter

Hourly Weather History & Observations

Time (MDT) Temp. Dew Point Humidity Pressure Visibility Wind Dir Wind Speed Gust Speed Precip Events Conditions
12:58 AM 67.1 °F 40.5 °F 38% 29.77 in 10.0 mi NW 12.7 mph - N/A   Clear
1:58 AM 66.6 °F 41.2 °F 40% 29.78 in 10.0 mi NW 10.4 mph - N/A   Mostly Cloudy
2:58 AM 64.4 °F 33.6 °F 32% 29.78 in 10.0 mi NW 11.5 mph - N/A   Partly Cloudy
3:58 AM 62.4 °F 31.6 °F 31% 29.78 in 10.0 mi NW 15.0 mph - N/A   Clear
4:58 AM 60.6 °F 31.6 °F 34% 29.80 in 10.0 mi WNW 11.5 mph - N/A   Mostly Cloudy
5:58 AM 60.3 °F 31.3 °F 34% 29.80 in 10.0 mi NW 13.8 mph - N/A   Clear
6:58 AM 59.9 °F 32.4 °F 35% 29.81 in 10.0 mi NW 17.3 mph - N/A   Clear
7:58 AM 63.1 °F 32.5 °F 32% 29.82 in 10.0 mi NNW 17.3 mph 23.0 mph N/A   Clear
8:58 AM 65.5 °F 34.0 °F 31% 29.85 in 10.0 mi NNW 16.1 mph - N/A   Clear
9:58 AM 69.4 °F 34.5 °F 28% 29.85 in 10.0 mi NW 21.9 mph - N/A   Partly Cloudy
10:58 AM 72.5 °F 32.9 °F 23% 29.84 in 10.0 mi NW 20.7 mph - N/A   Clear
11:58 AM 75.4 °F 26.2 °F 16% 29.83 in 10.0 mi NW 21.9 mph 27.6 mph N/A   Clear
12:58 PM 78.3 °F 22.1 °F 12% 29.82 in 10.0 mi NNW 23.0 mph 29.9 mph N/A   Clear
1:58 PM 80.8 °F 17.2 °F 9% 29.81 in 10.0 mi NW 25.3 mph 40.3 mph N/A   Clear
2:58 PM 81.9 °F 18.1 °F 9% 29.80 in 10.0 mi NW 23.0 mph 33.4 mph N/A   Clear
3:58 PM 83.3 °F 18.1 °F 9% 29.78 in 10.0 mi NNW 19.6 mph 33.4 mph N/A   Clear
4:58 PM 83.5 °F 19.4 °F 9% 29.76 in 10.0 mi NNW 23.0 mph 31.1 mph N/A   Clear
5:58 PM 83.1 °F 16.3 °F 8% 29.75 in 10.0 mi North 23.0 mph 28.8 mph N/A   Clear
6:58 PM 82.6 °F 18.7 °F 9% 29.75 in 10.0 mi NNW 21.9 mph 31.1 mph N/A   Clear
7:58 PM 80.6 °F 21.9 °F 11% 29.75 in 10.0 mi NNW 20.7 mph 25.3 mph N/A   Clear
8:58 PM 77.9 °F 23.7 °F 13% 29.76 in 10.0 mi NNW 16.1 mph - N/A   Clear
9:58 PM 70.0 °F 25.3 °F 19% 29.79 in 10.0 mi WNW 10.4 mph - N/A   Clear
10:58 PM 69.3 °F 33.3 °F 26% 29.81 in 10.0 mi NW 19.6 mph - N/A   Clear
11:58 PM 66.4 °F 32.0 °F 28% 29.83 in 10.0 mi WNW 12.7 mph - N/A   Clear